Location: Caltech
(34.1382°N, 118.1253°W)
Time: 15:11:20
(UTC-07:00)

JAS-1B - Visible Passes

Search period start: 16 April 2014 00:00
Search period end: 26 April 2014 00:00
Orbit: 911 x 1744 km, 99.0° (Epoch: 15 April)

Date Brightness Start Highest point End Pass type
(mag) Time Alt. Az. Time Alt. Az. Time Alt. Az.
16 Apr 7.9 04:23:13 10° NNE 04:28:36 43° E 04:34:11 10° S visible
17 Apr 7.2 04:42:01 10° NNE 04:47:39 66° ESE 04:53:33 10° S visible
18 Apr 6.8 05:00:59 10° NNE 05:06:40 83° WNW 05:12:39 10° SSW visible
19 Apr 9.4 03:31:38 10° ENE 03:34:38 14° E 03:37:43 10° SE visible
19 Apr 7.0 05:20:07 10° N 05:25:38 56° WNW 05:31:28 10° SSW visible
20 Apr 8.9 03:49:24 10° NE 03:53:48 23° E 03:58:24 10° SSE visible
20 Apr 7.5 05:39:24 10° N 05:44:34 37° WNW 05:50:00 10° SW visible
21 Apr 8.3 04:07:45 10° NE 04:12:54 34° E 04:18:23 10° SSE visible
22 Apr 7.7 04:26:25 10° NNE 04:31:58 52° E 04:37:58 10° S visible
23 Apr 7.1 04:45:16 10° NNE 04:50:59 78° ESE 04:57:14 10° S visible
24 Apr 9.6 03:17:20 10° ENE 03:18:56 11° E 03:20:35 10° ESE visible
24 Apr 6.9 05:04:18 10° N 05:09:59 72° WNW 05:16:14 10° SSW visible
25 Apr 9.2 03:34:13 10° NE 03:38:07 18° E 03:42:14 10° SE visible
25 Apr 7.3 05:23:28 10° N 05:28:57 49° WNW 05:34:57 10° SW visible
